Location: Bosdarros
(43.2167°N, 0.3667°W)
Time: 08:16:40
(UTC+00:00)

ATLAS 5 CENTAUR R/B - Pass Details

Date: 22 April 2021
Orbit: 256 x 14171 km, 60.8° (Epoch: 07 May)

Event Time Altitude Azimuth Distance (km) Brightness Sun altitude
Rises 19:53:01 0° 315° (NW) 1,890 6.3 -10.9°
Reaches altitude 10° 19:54:37 10° 309° (NW) 1,050 4.8 -11.2°
Maximum altitude 19:56:27 52° 229° (SW) 384 1.2 -11.4°
Enters shadow 19:58:30 15° 154° (SSE) 1,212 3.1 -11.8°
